Lexington Weather

Lexington, Massachusetts, USA

39°F
3/2/2024 8:28am 
  • Lexington Conditions: Mostly cloudy
  • Temperature: 38.7°F / 3.7°CWarmer 1.7°F than last hour.
  • Dew Point: 33.1°FIncreased 1.6°Fsince last hour.
  • Relative Humidity: 80
  • Wind: Calm, 10-min avg: Calm, gust: None
  • Barometer: 30.45 in Steady
  • Visibility: 10 miles
  • Rain Today: 0.00 in
  •   

Regional Weather Roundup
for Boston, MA

        
000
ASUS41 KBOX 270310
RWRBOX

REGIONAL WEATHER ROUNDUP
NATIONAL WEATHER SERVICE BOSTON/NORTON MA
1000 PM EST MON FEB 26 2024

NOTE:  "FAIR" INDICATES FEW OR NO CLOUDS BELOW 12,000 FEET WITH NO 
SIGNIFICANT WEATHER AND/OR OBSTRUCTIONS TO VISIBILITY.

MAZALL-270400-
EASTERN MASSACHUSETTS
  
CITY           SKY/WX    TMP DP  RH WIND       PRES   REMARKS
BOSTON         PTCLDY    43  35  73 SW8       30.08R                  
BEVERLY        CLEAR     41  32  70 S3        30.06R                  
LAWRENCE       CLEAR     40  31  70 CALM      30.07R                  
BEDFORD        CLEAR     33  28  81 SW3       30.06R                  
NORWOOD        CLEAR     34  29  82 SE3       30.08R                  
MARSHFIELD     PTCLDY    39  36  87 SW7       30.08R                  
PLYMOUTH       CLEAR     38  36  92 S3        30.08R                  
TAUNTON        CLEAR     34  30  85 CALM      30.08R                  
NEW BEDFORD    CLEAR     34  33  96 S3        30.09R FOG              
$$

MAZALL-270400-
CAPE COD AND THE ISLANDS
  
CITY           SKY/WX    TMP DP  RH WIND       PRES   REMARKS
FALMOUTH       MOCLDY    39  39 100 SW9       30.07S                  
HYANNIS        PTCLDY    38  37  97 SW8       30.08R                  
CHATHAM        CLEAR     39  38  96 SW8       30.11R                  
PROVINCETOWN   CLEAR     39  39 100 S9        30.10R                  
NANTUCKET      CLEAR     38  38 100 S7        30.11R                  
MARTHAS VNYRD  CLEAR     40  38  93 SW5       30.10R                  
$$
 
MAZALL-270400-
CENTRAL AND WESTERN MASSACHUSETTS
  
CITY           SKY/WX    TMP DP  RH WIND       PRES   REMARKS
WORCESTER      CLEAR     40  31  70 SW3       30.04R                  
FITCHBURG      CLEAR     35  28  75 NW3       30.06R                  
ORANGE         CLEAR     28  26  92 CALM      30.06R                  
SPRINGFIELD    MOCLDY    33  28  83 NE3       30.03R                  
WESTFIELD      CLEAR     35  29  78 N3        30.05R                  
NORTH ADAMS    CLEAR     29  24  82 CALM      30.04R                  
PITTSFIELD     PTCLDY    32  25  75 CALM      30.01R                  
$$
 
RIZALL-270400-
RHODE ISLAND
  
CITY           SKY/WX    TMP DP  RH WIND       PRES   REMARKS
PROVIDENCE     CLEAR     36  32  85 S3        30.08R                  
NEWPORT        PTCLDY    39  39 100 SW3       30.08R                  
BLOCK ISLAND   CLEAR     40  39  97 SW13      30.09R                  
SMITHFIELD       N/A    N/A N/A N/A MISG        N/A                   
WESTERLY       PTCLDY    33  29  85 CALM      30.09R                  
$$
 
CTZALL-270400-
CONNECTICUT
  
CITY           SKY/WX    TMP DP  RH WIND       PRES   REMARKS
BRADLEY INTL   MOCLDY    40  33  76 S5        30.05R                  
HARTFORD       PTCLDY    39  33  79 S6        30.06R                  
PLAINVILLE     FAIR      36  34  92 CALM      30.05R                  
BRIDGEPORT     PTCLDY    38  33  82 CALM      30.07R                  
DANBURY        PTCLDY    35  29  78 SW3       30.06R                  
GROTON         CLEAR     33  32  96 CALM      30.08R                  
NEW HAVEN      CLEAR     33  30  88 CALM      30.07R                  
CHESTER        CLEAR     39  36  87 W3        30.06R                  
MERIDEN        PTCLDY    33  30  88 CALM      30.06R                  
WILLIMANTIC    CLEAR     30  27  88 NE3       30.07R                  
OXFORD         PTCLDY    38  33  82 CALM      30.05R                  
$$

MEZ002-015-021-024-NHZ003-005-008-011-012-014-VTZ005-008-270400-
NORTHERN NEW ENGLAND
  
CITY           SKY/WX    TMP DP  RH WIND       PRES   REMARKS
PORTLAND ME    CLEAR     34  27  75 CALM      30.07R                  
BANGOR ME      CLEAR     29  22  75 W6        30.06R WCI  23          
CONCORD NH     CLEAR     30  25  81 NE3       30.06R                  
MANCHESTER NH  PTCLDY    39  28  64 N3        30.04R                  
NASHUA NH      CLEAR     34  34 100 CALM      30.06R                  
PORTSMOUTH NH  MOCLDY    39  27  60 NE5       30.07R                  
JAFFREY NH     CLEAR     31  27  85 CALM      30.03R                  
KEENE NH       CLEAR     29  26  89 CALM      30.05R                  
BURLINGTON VT  CLEAR     30  19  63 CALM      30.02S                  
MT. WASHINGTON PTCLDY    18   7  62 W39G46      N/A  WCI  -4          
$$

NYZ052-076-270400-
EASTERN NEW YORK
  
CITY           SKY/WX    TMP DP  RH WIND       PRES   REMARKS
ALBANY         PTCLDY    35  26  69 CALM      30.03R                  
NEW YORK CITY  MOCLDY    47  34  60 CALM      30.06R                  
$$
 
ANZALL-270400-
MARINE OBSERVATIONS
  
STATION/POSITION TIME  TEMP    WIND        PRES    VSBY  WAVE
                       AIR SEA DIR/SP/G                  HT/PER
                 (UTC) (F)     (DEG/KT/KT) (MB)    (MI)  (FT/S)
BOSTON BUOY      0250   42 39  290/  6/  8 1018.1R         2/11
BUZZARDS BAY     0200   41     220/ 17/ 18 1018.5R
NANTUCKET SOUND  0250   40 37  210/  4/  4 1018.9R         1/ 2
MASS BAY-STELLWA 0104   43 40  190/  8/  8 1016.8R  1 7/8  1/ 3
ISLE OF SHOALS   0200   48     360/ 14/ 17 1016.7R
S OF BLOCK IS    0256      41                N/A           4/ 9
$$

......................KEY.........................
  SKY/WX - SKY CONDITION/PRESENT WEATHER
  TMP    - TEMPERATURE IN FAHRENHEIT
  DWPT   - DEWPOINT IN FAHRENHEIT
  RH     - RELATIVE HUMIDITY IN PERCENT
  WIND   - DIRECTION AND SPEED IN MPH
  PRES   - MEAN SEA LEVEL PRESSURE IN INCHES OF HG
  WCI    - WIND CHILL INDEX
  VSB    - VISIBILITY IN MILES
  HX     - HEAT INDEX
  TC     - TEMPERATURE IN CELSIUS
  VRB    - VARIABLE WIND DIRECTION
  N/A    - NOT AVAILABLE
  
      

Other recent Regional Weather Roundups

Sat Mar 2, 8:10am EST

Sat Mar 2, 7:10am EST

Sat Mar 2, 6:10am EST

Sat Mar 2, 5:10am EST

Sat Mar 2, 4:10am EST

Sat Mar 2, 3:10am EST

Sat Mar 2, 2:10am EST

Sat Mar 2, 1:10am EST

Sat Mar 2, 12:10am EST

Fri Mar 1, 11:10pm EST

Fri Mar 1, 10:10pm EST

Fri Mar 1, 9:10pm EST

Fri Mar 1, 8:10pm EST

Fri Mar 1, 7:10pm EST

Fri Mar 1, 6:10pm EST

Fri Mar 1, 5:10pm EST

Fri Mar 1, 4:10pm EST

Fri Mar 1, 3:10pm EST

Fri Mar 1, 2:10pm EST

Fri Mar 1, 1:10pm EST

Fri Mar 1, 12:10pm EST

Fri Mar 1, 11:10am EST

Fri Mar 1, 10:10am EST

Fri Mar 1, 9:10am EST

Fri Mar 1, 8:10am EST

Fri Mar 1, 7:10am EST

Fri Mar 1, 6:10am EST

Fri Mar 1, 5:10am EST

Fri Mar 1, 4:10am EST

Fri Mar 1, 3:10am EST

Fri Mar 1, 2:10am EST

Fri Mar 1, 1:10am EST

Fri Mar 1, 12:10am EST

Thu Feb 29, 11:10pm EST

Thu Feb 29, 10:10pm EST

Thu Feb 29, 9:10pm EST

Thu Feb 29, 8:10pm EST

Thu Feb 29, 7:10pm EST

Thu Feb 29, 6:10pm EST

Thu Feb 29, 5:10pm EST

Thu Feb 29, 4:10pm EST

Thu Feb 29, 3:10pm EST

Thu Feb 29, 2:10pm EST

Thu Feb 29, 1:10pm EST

Thu Feb 29, 12:10pm EST

Thu Feb 29, 11:10am EST

Thu Feb 29, 10:10am EST

Thu Feb 29, 9:10am EST

Thu Feb 29, 8:10am EST

Thu Feb 29, 7:10am EST

Thu Feb 29, 6:10am EST

Thu Feb 29, 5:10am EST

Thu Feb 29, 4:10am EST

Thu Feb 29, 3:10am EST

Thu Feb 29, 2:10am EST

Thu Feb 29, 1:10am EST

Thu Feb 29, 12:10am EST

Wed Feb 28, 11:10pm EST

Wed Feb 28, 10:10pm EST

Wed Feb 28, 9:10pm EST

Wed Feb 28, 8:10pm EST

Wed Feb 28, 7:10pm EST

Wed Feb 28, 6:10pm EST

Wed Feb 28, 5:10pm EST

Wed Feb 28, 4:10pm EST

Wed Feb 28, 3:10pm EST

Wed Feb 28, 2:10pm EST

Wed Feb 28, 1:10pm EST

Wed Feb 28, 12:10pm EST

Wed Feb 28, 11:10am EST

Wed Feb 28, 10:10am EST

Wed Feb 28, 9:10am EST

Wed Feb 28, 8:10am EST

Wed Feb 28, 7:10am EST

Wed Feb 28, 6:10am EST

Wed Feb 28, 5:10am EST

Wed Feb 28, 4:10am EST

Wed Feb 28, 3:10am EST

Wed Feb 28, 2:10am EST

Wed Feb 28, 1:10am EST

Wed Feb 28, 12:10am EST

Tue Feb 27, 11:10pm EST

Tue Feb 27, 10:10pm EST

Tue Feb 27, 9:10pm EST

Tue Feb 27, 8:10pm EST

Tue Feb 27, 7:10pm EST

Tue Feb 27, 6:10pm EST

Tue Feb 27, 5:10pm EST

Tue Feb 27, 4:10pm EST

Tue Feb 27, 3:10pm EST

Tue Feb 27, 2:10pm EST

Tue Feb 27, 1:10pm EST

Tue Feb 27, 12:10pm EST

Tue Feb 27, 11:10am EST

Tue Feb 27, 10:10am EST

Tue Feb 27, 9:10am EST

Tue Feb 27, 8:10am EST

Tue Feb 27, 7:10am EST

Tue Feb 27, 6:10am EST

Tue Feb 27, 5:10am EST

Tue Feb 27, 4:10am EST

Tue Feb 27, 3:10am EST

Tue Feb 27, 2:10am EST

Tue Feb 27, 1:10am EST

Tue Feb 27, 12:10am EST

Mon Feb 26, 11:10pm EST

Mon Feb 26, 9:10pm EST

Mon Feb 26, 8:10pm EST

Mon Feb 26, 7:10pm EST

Mon Feb 26, 6:10pm EST

Mon Feb 26, 5:10pm EST

Mon Feb 26, 4:10pm EST

Mon Feb 26, 3:10pm EST

Mon Feb 26, 2:10pm EST

Mon Feb 26, 1:10pm EST

Mon Feb 26, 12:10pm EST

Mon Feb 26, 11:10am EST

Mon Feb 26, 10:10am EST

Mon Feb 26, 9:10am EST

Mon Feb 26, 8:10am EST

Mon Feb 26, 7:10am EST

Mon Feb 26, 6:10am EST

Mon Feb 26, 5:10am EST

Mon Feb 26, 4:10am EST

Mon Feb 26, 3:10am EST

Mon Feb 26, 2:10am EST

Mon Feb 26, 1:10am EST

Mon Feb 26, 12:10am EST

Sun Feb 25, 11:10pm EST

Sun Feb 25, 10:10pm EST

Sun Feb 25, 9:10pm EST

Sun Feb 25, 8:10pm EST

Sun Feb 25, 7:10pm EST

Sun Feb 25, 6:10pm EST

Sun Feb 25, 5:10pm EST

Sun Feb 25, 4:10pm EST

Sun Feb 25, 3:10pm EST

Sun Feb 25, 2:10pm EST

Sun Feb 25, 1:10pm EST

Sun Feb 25, 12:10pm EST

Sun Feb 25, 11:10am EST

Sun Feb 25, 10:10am EST

Sun Feb 25, 9:10am EST

Sun Feb 25, 8:10am EST

Sun Feb 25, 7:10am EST

Sun Feb 25, 6:10am EST

Sun Feb 25, 5:10am EST

Sun Feb 25, 4:10am EST

Sun Feb 25, 3:10am EST

Sun Feb 25, 2:10am EST

Sun Feb 25, 1:10am EST

Sun Feb 25, 12:10am EST

Sat Feb 24, 11:10pm EST

Sat Feb 24, 10:10pm EST

Sat Feb 24, 9:10pm EST

Sat Feb 24, 8:10pm EST

Sat Feb 24, 7:10pm EST

Sat Feb 24, 6:10pm EST

Sat Feb 24, 5:10pm EST

Sat Feb 24, 4:10pm EST

Sat Feb 24, 3:10pm EST

Sat Feb 24, 2:10pm EST

Sat Feb 24, 1:10pm EST

Sat Feb 24, 12:10pm EST

Sat Feb 24, 11:10am EST

Sat Feb 24, 10:10am EST

Sat Feb 24, 9:10am EST